Location: Marcé
(47.5801°N, 0.3280°W)
Time: 19:40:31
(UTC+01:00)

Vanguard 1 - Pass Details

Date: 06 December 2021
Orbit: 652 x 3830 km, 34.2° (Epoch: 16 January)

Event Time Altitude Azimuth Distance (km) Brightness Sun altitude
Rises 21:49:04 0° 195° (SSW) 6,387 14.2 -45.8°
Reaches altitude 10° 21:54:01 10° 183° (S) 5,816 13.8 -46.6°
Enters shadow 21:55:46 13° 178° (S) 5,662 13.7 -46.9°
Maximum altitude 22:08:20 26° 135° (SE) 5,400 - -48.9°
Drops below altitude 10° 22:25:04 10° 89° (E) 6,905 - -51.4°
Sets 22:31:36 0° 79° (E) 7,776 - -52.4°
